This demonstration page uses our WeatherBlox Daily Observations layout. Learn more.

39.92423, -83.80882

Hourly Observations for June 9, 2017

Temp ( °F °C ) Dew Point ( °F °C ) Humidity (%) Winds ( mph kmh ) Pressure ( in mb ) Visibility ( mi km ) Precip ( " mm )
12:58 am 00:58 Clear 54 12.4 51 10.7 89 89 W 3 6 29.9 1013 10 16.0934 0 0
1:58 am 01:58 Clear 54 12.1 52 11.1 94 94 Calm 29.89 1012 10 16.0934 0 0
2:58 am 02:58 Clear 53 11.4 51 10.7 96 96 Calm 29.88 1012 10 16.0934 0 0
3:38 am 03:38 Clear with Fog 52 11 52 11 100 100 Calm 29.88 1012 10 16.0934 0 0
3:58 am 03:58 Clear with Fog 52 11.2 51 10.4 95 95 Calm 29.88 1012 10 16.0934 0 0
4:58 am 04:58 Clear with Fog 53 11.7 52 11.1 96 96 Calm 29.88 1012 10 16.0934 0 0
5:58 am 05:58 Clear with Fog 54 12 51 10.8 92 92 Calm 29.89 1012 10 16.0934 0 0
6:58 am 06:58 Sunny 55 12.5 52 11.1 91 91 Calm 29.91 1013 10 16.0934 0 0
7:58 am 07:58 Sunny 60 15.3 55 12.6 84 84 Calm 29.92 1013 10 16.0934 0 0
8:58 am 08:58 Sunny 67 19.3 55 12.9 67 67 SW 10 17 29.93 1013 10 16.0934 0 0
9:58 am 09:58 Partly Cloudy 71 21.7 53 11.9 54 54 SW 9 15 29.93 1013 10 16.0934 0 0
10:58 am 10:58 Sunny 75 23.9 51 10.5 43 43 WSW 13 20 29.93 1013 10 16.0934 0 0
11:58 am 11:58 Mostly Cloudy 76 24.3 49 9.7 40 40 WSW 14 22 29.94 1014 10 16.0934 0 0
12:58 pm 12:58 Sunny 78 25.5 50 9.8 37 37 WSW 15 24 29.93 1014 10 16.0934 0 0
1:52 pm 13:52 Mostly Sunny 81 27 52 11 37 37 WSW 15 24 29.92 1013 10 16.0934 0 0
1:58 pm 13:58 Mostly Sunny 81 27 51 10.8 36 36 SSW 15 24 29.92 1013 10 16.0934 0 0
2:58 pm 14:58 Partly Cloudy 81 27 50 10 34 34 SSW 13 20 29.9 1013 10 16.0934 0 0
3:58 pm 15:58 Partly Cloudy 82 28 50 9.9 32 32 SW 12 19 29.88 1012 10 16.0934 0 0
4:29 pm 16:29 Mostly Sunny 82 28 50 10 32 32 SW 12 19 29.88 1012 10 16.0934 0 0
4:58 pm 16:58 Mostly Cloudy 83 28.1 51 10.3 33 33 SW 9 15 29.87 1011 10 16.0934 0 0
5:58 pm 17:58 Mostly Sunny 81 27.4 50 10.2 34 34 SW 15 24 29.87 1011 10 16.0934 0 0
6:58 pm 18:58 Partly Cloudy 80 26.8 51 10.6 36 36 SW 9 15 29.87 1011 10 16.0934 0 0
7:59 pm 19:59 Mostly Sunny 79 25.9 52 11 39 39 SSW 13 20 29.86 1011 10 16.0934 0 0
8:55 pm 20:55 Sunny 74 23.2 53 11.6 48 48 SSW 9 15 29.88 1012 10 16.0934 0 0
9:58 pm 21:58 Mostly Clear 68 20 54 12 60 60 SW 7 11 29.9 1012 10 16.0934 0 0
10:58 pm 22:58 Mostly Cloudy 69 20.6 55 12.6 60 60 SSW 7 11 29.9 1013 10 16.0934 0 0
11:58 pm 23:58 Cloudy 70 20.9 55 12.8 60 60 SW 8 13 29.92 1013 10 16.0934 0 0

Powered by AerisWeather